Погода в Елабуге

Погода в Елабуге : погода сейчас, прогноз погоды и архив. Всё, что Вы хотите узнать о погоде в Елабуге!

Поиск расширенной информации на нашем сайте:

Другие новости

Новости СМИ2

Главная страница сайта

Новости сайта

03.07.2017

Напоминаем, что на нашем специализированном сайте Метеоцентр.Азия вы можете получить высокодетализированные автоматические прогнозы погоды по пунктам России, СНГ и мира в авиационном формате (включающие направление и скорость ветра, видимость, явления погоды, количество и форму облачности, нижнюю и верхнюю границу облачности).


Погода в Елабуге - сегодня

Время (UTC), дата Ветер
(°,м/с) 
Видим.   Явления Облачность Т
(°С)
Тd
(°С)
f(%) Тe
(°С)
Pmin
(гПа)
dP
(гПа)
Po
(мм)
O2
(г/м3)
Тmin Tmax R s Состояние
почвы
09 19.07.17 270 (З) 10 км    6/0 средняя 
[Ac lent]
+23.2 +11.8 49 +27  1015.8  -0.3  754  278           
12 19.07.17 320 (СЗ) 10 км    3/0 средняя 
[Ac lent]
+24.8 +9.2 37 +25  1015  -0.7  753  277           
15 19.07.17 010 (С) 10 км    3/0 средняя 
[Ac lent]
+24.5 +10.6 42 +26  1014.6  -0.4  753  277    +25.5       
18 19.07.17 310 (СЗ) 10 км    ясно 
+17.6 +12.8 73 +24  1015.4  0.6  754  283           
21 19.07.17 320 (СЗ) 10 км    ясно 
+15.1 +12.7 86 +21  1015.5  754  285           
00 20.07.17 тихо ()   10 км    ясно 
+13.8 +11.8 88 +17  1015.3  -0.3  753  287           
03 20.07.17 тихо ()   10 км    ясно 
+18.2 +14.1 77 +25  1015.7  0.5  754  282  +13.2        сухая 
06 20.07.17 170 (Ю) 10 км    3/3 600 м 
[Cu hum]
+24 +13.9 53 +31  1015.3  0.1  754  276           
09 20.07.17 220 (ЮЗ) 10 км    4/3 600 м средняя 
[Cu hum|Ac lent]
+26.2 +11.7 40 +30  1014.7  -0.5  753  275           
12 20.07.17 210 (ЮЗ) 10 км    5/5 600 м 
[Cu hum]
+26.6 +12.2 41 +31  1013.9  -0.8  753  274           
15 20.07.17 340 (С) 10 км  {гроза}  5/3 600 м средняя 
[Sc|Ac lent]
+22.8 +13.7 56 +29  1014.1  -0.1  753  277    +26.9       
18 20.07.17 тихо ()   10 км  {гроза}  6/0 средняя 
[Ac lent]
+18 +14.4 79 +26  1014.6  0.3  753  282           
21 20.07.17 тихо ()   10 км    3/0 средняя 
[Ac lent]
+16.4 +14.3 87 +24  1014.4  -0.3  753  283           
00 21.07.17 310 (СЗ) 10 км    ясно 
+15.4 +13.9 91 +24  1014.3  0.1  753  284           
03 21.07.17 090 (В) 10 км    3/0 средняя 
[Ac lent]
+20.4 +15 71 +29  1014.1  753  279  +15.3        сухая 
06 21.07.17 140 (ЮВ) 10 км    8/0 средняя 
[Ac As]
+23.5 +16 63 +34  1013.5  -0.5  752  276           
09 21.07.17 180 (Ю) 10 км    10/4 600 м средняя 
[Cu hum|Ac und]
+24.1 +14.3 54 +32  1013  -0.5  752  276           
12 21.07.17 250 (З) 10 км  {дождь}  9/9 600 м 
[Cu med, cong]
+25.1 +15 53 +34  1011.6  -1.3  751  274           
15 21.07.17 250 (З) 10 км    10/5 600 м средняя 
[Cu med, cong|Ac und]
+22.9 +14.1 58 +30  1011.1  -0.6  751  276    +25.4     
18 21.07.17 тихо ()   10 км    10/4 600 м средняя 
[Cu hum|Ac und]
+18.5 +15 80 +27  1011.2  751  280           
21 21.07.17 тихо ()   10 км    10/0 средняя 
[Ac und]
+16.5 +14.8 90 +25  1010.7  -0.5  750  282           
00 22.07.17 тихо ()   10 км    10/0 средняя 
[Ac und]
+15.2 +13.9 92 +22  1010.2  -0.6  750  283           
03 22.07.17 270 (З) 10 км    8/0 средняя 
[Ac As]
+18.3 +16.5 89 +30  1010  0.1  750  279  +15        влажная 
06 22.07.17 310 (СЗ) 10 км    3/3 600 м 
[Sc]
+22 +11.8 52 +26  1010.4  0.5  750  277           
09 22.07.17 300 (СЗ) 10 км    4/4 600 м 
[Cu med, cong]
+23.7 +10.3 43 +25  1010.4  0.1  750  276           
Время (UTC), дата Ветер
(°,м/с) 
Видим.   Явления Облачность Т
(°С)
Тd
(°С)
f(%) Тe
(°С)
Pmin
(гПа)
dP
(гПа)
Po
(мм)
O2
(г/м3)
Тmin Tmax R s Состояние
почвы

Для получения пояснительной информации подведите курсор к названию столбца.

ПОГОДА в Елабуге - архив

Всё, что Вы хотите узнать о погоде в Елабуге - удобно и подробно!

Выберите нужную дату (начиная с 1 января 2015* года) и нажмите кнопку "Найти".
Будут отображены архивные сводки погоды по пункту Елабуга, начиная с указанной даты.


Отображать данные в формате CSV (для использования в таблицах Excel)


Внимание! Наш архив погоды предназначен исключительно для личного некоммерческого использования в познавательных целях. Если Вам необходимы официальные справки о состоянии погоды (для производственных, юридических, коммерческих и т.п. целей), обращайтесь в органы Росгидромета.

*Примечание: данная дата относится к архиву по метеостанциям СССР (Россия, СНГ, Балтия).
Архив по метеостанциям Зарубежной Европы и Азии (кроме Китая) хранится 10 дней, по другим регионам земного шара (Китай, Африка, Америка, Австралия, Океания) - 1 день.

Елабуга - район местоположения метеостанции


Название, широта, долгота, высота метеостанции:
Елабуга 55.7°ш. 52.1°д. 90 м над ур. моря [Российская Федерация]

Дополнительная информация

В oтличие oт бoльшинства пoгoдных сайтoв мы публикуем пoдрoбную метеoинфoрмацию в детальнoм прoфессиoнальнoм фoрмате.

Характеристики температуры и влажнoсти вoздуха измеряются на высoте 2 м в тени вдали oт зданий и деревьев.
Скoрoсть ветра измеряется на высoте 10 м (на урoвне рoста челoвека скoрoсть ветра ниже в 1.5-2 раза). Если метеoстанция нахoдится в гoрoде или в лесу, тo скoрoсть ветра занижена на 2-4 м/с пo сравнению с oткрытым местoм. Скoрoсть ветра над акватoриями крупных рек и oзёр, а также на вершинах хoлмoв на 2-5 м/с выше, чем в oбычных услoвиях.
Атмoсфернoе давление в разных тoчках местнoсти мoжет значительнo oтличаться oт давления на метеoстанции, в зависимoсти oт услoвий рельефа (при пoдъёме на 10 м давление пoнижается примернo на 1 мм рт.ст.).